| time (UTC) | temp F | wind direction | speed MPH | gust MPH | rain 1hr in | rain 24hr in | rain mn in | humidity % | barometer mb |
| 20260503022108 | 51 | 265 | 0.0 | 0.0 | 0.00 | 0.00 | 0.00 | 60 | 1013.0 |
| 20260503021606 | 51 | 265 | 0.0 | 0.0 | 0.00 | 0.00 | 0.00 | 59 | 1012.8 |
| 20260503021102 | 51 | 265 | 0.0 | 0.0 | 0.00 | 0.00 | 0.00 | 57 | 1013.0 |
| 20260503020559 | 51 | 266 | 0.0 | 0.0 | 0.00 | 0.00 | 0.00 | 62 | 1013.1 |
| 20260503020056 | 51 | 257 | 0.0 | 0.0 | 0.00 | 0.00 | 0.00 | 66 | 1013.1 |
| 20260503015553 | 51 | 270 | 0.0 | 0.0 | 0.00 | 0.00 | 0.00 | 63 | 1013.0 |
| 20260503015050 | 52 | 269 | 0.0 | 0.0 | 0.00 | 0.00 | 0.00 | 63 | 1012.9 |
| 20260503014546 | 52 | 271 | 0.0 | 0.0 | 0.00 | 0.00 | 0.00 | 59 | 1013.1 |
| 20260503014044 | 53 | 271 | 0.0 | 0.0 | 0.00 | 0.00 | 0.00 | 53 | 1012.9 |
| 20260503013541 | 53 | 271 | 0.0 | 0.0 | 0.00 | 0.00 | 0.00 | 58 | 1012.9 |
| 20260503013039 | 53 | 279 | 0.0 | 0.0 | 0.00 | 0.00 | 0.00 | 51 | 1013.1 |
| 20260503012536 | 53 | 280 | 0.0 | 0.0 | 0.00 | 0.00 | 0.00 | 49 | 1013.1 |
| 20260503012032 | 54 | 279 | 0.0 | 0.0 | 0.00 | 0.00 | 0.00 | 49 | 1013.1 |
| 20260503011529 | 54 | 279 | 0.0 | 0.0 | 0.00 | 0.00 | 0.00 | 48 | 1013.2 |
| 20260503011026 | 54 | 280 | 0.0 | 0.0 | 0.00 | 0.00 | 0.00 | 44 | 1013.0 |
| 20260503010522 | 55 | 279 | 0.0 | 0.0 | 0.00 | 0.00 | 0.00 | 45 | 1013.1 |
| 20260503010020 | 55 | 236 | 0.0 | 1.0 | 0.00 | 0.00 | 0.00 | 45 | 1013.1 |
| 20260503005517 | 55 | 270 | 0.0 | 0.0 | 0.00 | 0.00 | 0.00 | 44 | 1013.2 |
| 20260503005014 | 55 | 252 | 1.0 | 1.0 | 0.00 | 0.00 | 0.00 | 43 | 1013.2 |
| 20260503004510 | 55 | 291 | 0.0 | 1.0 | 0.00 | 0.00 | 0.00 | 41 | 1013.3 |
| 20260503004008 | 55 | 282 | 0.0 | 0.0 | 0.00 | 0.00 | 0.00 | 43 | 1013.1 |
| 20260503003505 | 56 | 299 | 0.0 | 1.0 | 0.00 | 0.00 | 0.00 | 43 | 1013.4 |
| 20260503003002 | 56 | 325 | 0.0 | 4.0 | 0.00 | 0.00 | 0.00 | 42 | 1013.4 |
| 20260503002459 | 56 | 291 | 0.0 | 1.0 | 0.00 | 0.00 | 0.00 | 41 | 1013.4 |
| 20260503001955 | 56 | 310 | 1.0 | 2.0 | 0.00 | 0.00 | 0.00 | 40 | 1013.3 |
| 20260503001452 | 56 | 278 | 0.0 | 0.0 | 0.00 | 0.00 | 0.00 | 41 | 1013.4 |
| 20260503000949 | 56 | 302 | 1.0 | 1.0 | 0.00 | 0.00 | 0.00 | 39 | 1013.6 |
| 20260503000446 | 57 | 304 | 0.0 | 0.0 | 0.00 | 0.00 | 0.00 | 41 | 1013.6 |
| 20260502235944 | 56 | 292 | 0.0 | 1.0 | 0.00 | 0.00 | 0.00 | 40 | 1013.5 |
| 20260502235440 | 57 | 267 | 0.0 | 0.0 | 0.00 | 0.00 | 0.00 | 41 | 1013.7 |
| 20260502234938 | 56 | 298 | 1.0 | 2.0 | 0.00 | 0.00 | 0.00 | 37 | 1013.8 |
| 20260502234434 | 56 | 129 | 2.0 | 3.0 | 0.00 | 0.00 | 0.00 | 36 | 1013.7 |
| 20260502233932 | 57 | 333 | 1.0 | 2.0 | 0.00 | 0.00 | 0.00 | 41 | 1013.6 |
| 20260502233426 | 57 | 286 | 0.0 | 1.0 | 0.00 | 0.00 | 0.00 | 37 | 1013.7 |
| 20260502232924 | 57 | 135 | 3.0 | 4.0 | 0.00 | 0.00 | 0.00 | 33 | 1013.7 |
| 20260502232420 | 57 | 289 | 1.0 | 4.0 | 0.00 | 0.00 | 0.00 | 34 | 1013.6 |
| 20260502231917 | 57 | 97 | 3.0 | 4.0 | 0.00 | 0.00 | 0.00 | 34 | 1013.6 |
| 20260502231414 | 57 | 193 | 2.0 | 4.0 | 0.00 | 0.00 | 0.00 | 34 | 1013.9 |
| 20260502230913 | 58 | 340 | 0.0 | 3.0 | 0.00 | 0.00 | 0.00 | 32 | 1013.8 |
| 20260502230410 | 58 | 271 | 1.0 | 3.0 | 0.00 | 0.00 | 0.00 | 37 | 1014.0 |
| 20260502225908 | 59 | 187 | 3.0 | 3.0 | 0.00 | 0.00 | 0.00 | 33 | 1013.9 |
| 20260502225404 | 58 | 272 | 0.0 | 1.0 | 0.00 | 0.00 | 0.00 | 33 | 1013.9 |
| 20260502224901 | 58 | 171 | 2.0 | 3.0 | 0.00 | 0.00 | 0.00 | 36 | 1014.1 |
| 20260502224356 | 57 | 274 | 0.0 | 2.0 | 0.00 | 0.00 | 0.00 | 33 | 1014.2 |
| 20260502223854 | 57 | 333 | 0.0 | 2.0 | 0.00 | 0.00 | 0.00 | 35 | 1014.2 |
| 20260502223352 | 57 | 279 | 0.0 | 4.0 | 0.00 | 0.00 | 0.00 | 32 | 1014.1 |
| 20260502222850 | 58 | 294 | 1.0 | 2.0 | 0.00 | 0.00 | 0.00 | 32 | 1014.3 |
| 20260502222348 | 58 | 271 | 0.0 | 2.0 | 0.00 | 0.00 | 0.00 | 32 | 1014.1 |
| 20260502221843 | 58 | 283 | 0.0 | 3.0 | 0.00 | 0.00 | 0.00 | 31 | 1014.2 |
| 20260502221339 | 59 | 261 | 1.0 | 2.0 | 0.00 | 0.00 | 0.00 | 30 | 1014.4 |
| 20260502220837 | 59 | 90 | 2.0 | 3.0 | 0.00 | 0.00 | 0.00 | 34 | 1014.3 |
| 20260502220332 | 58 | 290 | 0.0 | 3.0 | 0.00 | 0.00 | 0.00 | 32 | 1014.4 |
| 20260502215829 | 58 | 307 | 2.0 | 2.0 | 0.00 | 0.00 | 0.00 | 29 | 1014.2 |
| 20260502215327 | 58 | 266 | 1.0 | 1.0 | 0.00 | 0.00 | 0.00 | 32 | 1014.3 |
| 20260502214823 | 58 | 273 | 1.0 | 1.0 | 0.00 | 0.00 | 0.00 | 32 | 1014.4 |
| 20260502214320 | 57 | 309 | 1.0 | 2.0 | 0.00 | 0.00 | 0.00 | 32 | 1014.6 |
| 20260502213817 | 58 | 269 | 1.0 | 2.0 | 0.00 | 0.00 | 0.00 | 30 | 1014.4 |
| 20260502213314 | 58 | 298 | 1.0 | 6.0 | 0.00 | 0.00 | 0.00 | 32 | 1014.6 |
| 20260502212813 | 59 | 294 | 0.0 | 2.0 | 0.00 | 0.00 | 0.00 | 31 | 1014.6 |
| 20260502212311 | 60 | 276 | 2.0 | 7.0 | 0.00 | 0.00 | 0.00 | 28 | 1014.7 |
| 20260502211808 | 59 | 261 | 1.0 | 2.0 | 0.00 | 0.00 | 0.00 | 30 | 1014.4 |
| 20260502211258 | 59 | 237 | 1.0 | 3.0 | 0.00 | 0.00 | 0.00 | 28 | 1014.7 |
| 20260502210755 | 59 | 7 | 1.0 | 4.0 | 0.00 | 0.00 | 0.00 | 30 | 1014.6 |
| 20260502210253 | 59 | 313 | 2.0 | 7.0 | 0.00 | 0.00 | 0.00 | 30 | 1014.9 |
| 20260502205750 | 59 | 160 | 2.0 | 6.0 | 0.00 | 0.00 | 0.00 | 31 | 1014.8 |
| 20260502205246 | 57 | 125 | 2.0 | 6.0 | 0.00 | 0.00 | 0.00 | 34 | 1015.0 |
| 20260502204743 | 58 | 260 | 1.0 | 6.0 | 0.00 | 0.00 | 0.00 | 30 | 1015.0 |
| 20260502204240 | 60 | 246 | 2.0 | 3.0 | 0.00 | 0.00 | 0.00 | 28 | 1015.1 |
| 20260502203738 | 59 | 319 | 2.0 | 2.0 | 0.00 | 0.00 | 0.00 | 30 | 1015.0 |
| 20260502203236 | 58 | 262 | 2.0 | 3.0 | 0.00 | 0.00 | 0.00 | 29 | 1015.2 |
| 20260502202735 | 58 | 276 | 1.0 | 4.0 | 0.00 | 0.00 | 0.00 | 29 | 1015.3 |
| 20260502202234 | 58 | 179 | 3.0 | 4.0 | 0.00 | 0.00 | 0.00 | 29 | 1015.2 |
| 20260502201731 | 58 | 146 | 3.0 | 4.0 | 0.00 | 0.00 | 0.00 | 28 | 1015.5 |
| 20260502201227 | 58 | 76 | 4.0 | 8.0 | 0.00 | 0.00 | 0.00 | 28 | 1015.5 |
| 20260502200723 | 57 | 296 | 1.0 | 3.0 | 0.00 | 0.00 | 0.00 | 30 | 1015.6 |
| 20260502200220 | 56 | 268 | 0.0 | 3.0 | 0.00 | 0.00 | 0.00 | 33 | 1015.7 |
| 20260502195719 | 57 | 294 | 0.0 | 3.0 | 0.00 | 0.00 | 0.00 | 32 | 1015.9 |
| 20260502195215 | 57 | 211 | 2.0 | 8.0 | 0.00 | 0.00 | 0.00 | 32 | 1015.8 |
| 20260502194711 | 56 | 164 | 2.0 | 3.0 | 0.00 | 0.00 | 0.00 | 29 | 1015.9 |
| 20260502194209 | 57 | 309 | 1.0 | 2.0 | 0.00 | 0.00 | 0.00 | 29 | 1016.3 |
| 20260502193659 | 57 | 269 | 1.0 | 2.0 | 0.00 | 0.00 | 0.00 | 28 | 1016.3 |
| 20260502193156 | 57 | 262 | 0.0 | 3.0 | 0.00 | 0.00 | 0.00 | 30 | 1016.5 |
| 20260502192651 | 57 | 282 | 2.0 | 4.0 | 0.00 | 0.00 | 0.00 | 28 | 1016.4 |
| 20260502192149 | 56 | 354 | 1.0 | 3.0 | 0.00 | 0.00 | 0.00 | 34 | 1016.5 |
| 20260502191646 | 57 | 359 | 1.0 | 2.0 | 0.00 | 0.00 | 0.00 | 27 | 1016.5 |
| 20260502191143 | 56 | 137 | 0.0 | 4.0 | 0.00 | 0.00 | 0.00 | 32 | 1017.0 |
| 20260502190640 | 56 | 277 | 0.0 | 4.0 | 0.00 | 0.00 | 0.00 | 34 | 1016.7 |
| 20260502190138 | 56 | 258 | 1.0 | 2.0 | 0.00 | 0.00 | 0.00 | 30 | 1017.0 |
| 20260502185632 | 57 | 328 | 0.0 | 3.0 | 0.00 | 0.00 | 0.00 | 29 | 1016.9 |
| 20260502185130 | 57 | 284 | 2.0 | 4.0 | 0.00 | 0.00 | 0.00 | 28 | 1017.2 |
| 20260502184626 | 58 | 280 | 1.0 | 4.0 | 0.00 | 0.00 | 0.00 | 25 | 1017.1 |
| 20260502184121 | 58 | 308 | 3.0 | 4.0 | 0.00 | 0.00 | 0.00 | 28 | 1017.1 |
| 20260502183617 | 57 | 310 | 2.0 | 3.0 | 0.00 | 0.00 | 0.00 | 30 | 1017.0 |
| 20260502183114 | 56 | 301 | 2.0 | 6.0 | 0.00 | 0.00 | 0.00 | 30 | 1017.2 |
| 20260502182609 | 56 | 271 | 1.0 | 3.0 | 0.00 | 0.00 | 0.00 | 27 | 1017.3 |
| 20260502182105 | 54 | 43 | 2.0 | 6.0 | 0.00 | 0.00 | 0.00 | 43 | 1017.4 |
| 20260502181603 | 55 | 274 | 0.0 | 0.0 | 0.00 | 0.00 | 0.00 | 36 | 1017.4 |
| 20260502181102 | 55 | 105 | 3.0 | 3.0 | 0.00 | 0.00 | 0.00 | 34 | 1017.5 |
| 20260502180559 | 56 | 338 | 1.0 | 3.0 | 0.00 | 0.00 | 0.00 | 31 | 1017.7 |
| 20260502170511 | 54 | 288 | 1.0 | 2.0 | 0.00 | 0.00 | 0.00 | 28 | 1018.5 |
| 20260502163955 | 54 | 297 | 3.0 | 4.0 | 0.00 | 0.00 | 0.00 | 33 | 1018.7 |
| 20260502163450 | 55 | 359 | 2.0 | 4.0 | 0.00 | 0.00 | 0.00 | 30 | 1018.8 |
| 20260502162948 | 53 | 153 | 2.0 | 3.0 | 0.00 | 0.00 | 0.00 | 38 | 1018.7 |
| 20260502162445 | 53 | 315 | 1.0 | 3.0 | 0.00 | 0.00 | 0.00 | 33 | 1019.0 |
| 20260502161942 | 54 | 307 | 0.0 | 2.0 | 0.00 | 0.00 | 0.00 | 31 | 1019.2 |
| 20260502161438 | 52 | 306 | 2.0 | 2.0 | 0.00 | 0.00 | 0.00 | 33 | 1019.3 |
| 20260502160936 | 53 | 309 | 1.0 | 2.0 | 0.00 | 0.00 | 0.00 | 35 | 1019.2 |
| 20260502160434 | 53 | 264 | 1.0 | 7.0 | 0.00 | 0.00 | 0.00 | 36 | 1019.3 |
| 20260502151913 | 51 | 268 | 1.0 | 2.0 | 0.00 | 0.00 | 0.00 | 39 | 1019.6 |
| 20260502151409 | 50 | 274 | 2.0 | 2.0 | 0.00 | 0.00 | 0.00 | 39 | 1019.6 |
| 20260502150907 | 50 | 328 | 1.0 | 3.0 | 0.00 | 0.00 | 0.00 | 35 | 1019.7 |
| 20260502150403 | 49 | 220 | 1.0 | 2.0 | 0.00 | 0.00 | 0.00 | 39 | 1019.8 |
| 20260502130248 | 38 | 260 | 0.0 | 2.0 | 0.00 | 0.00 | 0.00 | 62 | 1020.6 |
| 20260502123735 | 33 | 203 | 2.0 | 2.0 | 0.00 | 0.00 | 0.00 | 72 | 1020.8 |
| 20260502123232 | 32 | 267 | 0.0 | 0.0 | 0.00 | 0.00 | 0.00 | 78 | 1020.9 |
| 20260502122728 | 31 | 286 | 0.0 | 0.0 | 0.00 | 0.00 | 0.00 | 86 | 1020.8 |
| 20260502122224 | 30 | 286 | 0.0 | 0.0 | 0.00 | 0.00 | 0.00 | 89 | 1020.6 |
| 20260502121723 | 29 | 286 | 0.0 | 0.0 | 0.00 | 0.00 | 0.00 | 90 | 1020.7 |
| 20260502121221 | 29 | 286 | 0.0 | 0.0 | 0.00 | 0.00 | 0.00 | 91 | 1020.7 |
| 20260502120717 | 28 | 286 | 0.0 | 0.0 | 0.00 | 0.00 | 0.00 | 92 | 1020.7 |
| 20260502120213 | 28 | 286 | 0.0 | 0.0 | 0.00 | 0.00 | 0.00 | 93 | 1020.8 |
| 20260502115711 | 28 | 286 | 0.0 | 0.0 | 0.00 | 0.00 | 0.00 | 92 | 1020.7 |
| 20260502115208 | 27 | 286 | 0.0 | 0.0 | 0.00 | 0.00 | 0.00 | 93 | 1020.6 |
| 20260502114704 | 27 | 286 | 0.0 | 0.0 | 0.00 | 0.00 | 0.00 | 93 | 1020.8 |
| 20260502114201 | 26 | 286 | 0.0 | 0.0 | 0.00 | 0.00 | 0.00 | 94 | 1020.8 |
| 20260502113658 | 26 | 286 | 0.0 | 0.0 | 0.00 | 0.00 | 0.00 | 94 | 1020.8 |
| 20260502113156 | 26 | 286 | 0.0 | 0.0 | 0.00 | 0.00 | 0.00 | 94 | 1020.9 |
| 20260502112654 | 26 | 286 | 0.0 | 0.0 | 0.00 | 0.00 | 0.00 | 95 | 1020.8 |
| 20260502112151 | 26 | 286 | 0.0 | 0.0 | 0.00 | 0.00 | 0.00 | 95 | 1020.7 |
| 20260502111648 | 25 | 286 | 0.0 | 0.0 | 0.00 | 0.00 | 0.00 | 95 | 1020.6 |
| 20260502111146 | 25 | 286 | 0.0 | 0.0 | 0.00 | 0.00 | 0.00 | 94 | 1020.6 |
| 20260502110644 | 25 | 286 | 0.0 | 0.0 | 0.00 | 0.00 | 0.00 | 95 | 1020.6 |
| 20260502110140 | 25 | 286 | 0.0 | 0.0 | 0.00 | 0.00 | 0.00 | 95 | 1020.6 |
| 20260502105638 | 25 | 286 | 0.0 | 0.0 | 0.00 | 0.00 | 0.00 | 95 | 1020.6 |
| 20260502105135 | 25 | 286 | 0.0 | 0.0 | 0.00 | 0.00 | 0.00 | 95 | 1020.8 |
| 20260502104632 | 25 | 286 | 0.0 | 0.0 | 0.00 | 0.00 | 0.00 | 95 | 1020.7 |
| 20260502104129 | 25 | 286 | 0.0 | 0.0 | 0.00 | 0.00 | 0.00 | 96 | 1020.7 |
| 20260502103626 | 25 | 286 | 0.0 | 0.0 | 0.00 | 0.00 | 0.00 | 96 | 1020.8 |
| 20260502103124 | 25 | 286 | 0.0 | 0.0 | 0.00 | 0.00 | 0.00 | 95 | 1020.8 |
| 20260502102621 | 25 | 286 | 0.0 | 0.0 | 0.00 | 0.00 | 0.00 | 94 | 1021.0 |
| 20260502102112 | 25 | 286 | 0.0 | 0.0 | 0.00 | 0.00 | 0.00 | 94 | 1020.8 |
| 20260502101610 | 25 | 286 | 0.0 | 0.0 | 0.00 | 0.00 | 0.00 | 94 | 1020.8 |
| 20260502101108 | 25 | 286 | 0.0 | 0.0 | 0.00 | 0.00 | 0.00 | 94 | 1020.9 |
| 20260502100607 | 25 | 286 | 0.0 | 0.0 | 0.00 | 0.00 | 0.00 | 94 | 1020.9 |
| 20260502100105 | 25 | 286 | 0.0 | 0.0 | 0.00 | 0.00 | 0.00 | 94 | 1020.9 |
| 20260502091038 | 26 | 287 | 0.0 | 0.0 | 0.00 | 0.00 | 0.00 | 94 | 1020.8 |
| 20260502090535 | 26 | 287 | 0.0 | 0.0 | 0.00 | 0.00 | 0.00 | 93 | 1020.9 |
| 20260502071429 | 28 | 287 | 0.0 | 0.0 | 0.00 | 0.00 | 0.00 | 89 | 1021.1 |
| 20260502070927 | 28 | 287 | 0.0 | 0.0 | 0.00 | 0.00 | 0.00 | 88 | 1021.3 |
| 20260502070425 | 28 | 287 | 0.0 | 0.0 | 0.00 | 0.00 | 0.00 | 88 | 1021.6 |
| 20260502065923 | 28 | 287 | 0.0 | 0.0 | 0.00 | 0.00 | 0.00 | 87 | 1021.2 |
| 20260502065422 | 28 | 287 | 0.0 | 0.0 | 0.00 | 0.00 | 0.00 | 88 | 1021.3 |
| 20260502064919 | 28 | 287 | 0.0 | 0.0 | 0.00 | 0.00 | 0.00 | 88 | 1021.3 |
| 20260502064417 | 28 | 287 | 0.0 | 0.0 | 0.00 | 0.00 | 0.00 | 88 | 1021.5 |
| 20260502063914 | 28 | 286 | 0.0 | 0.0 | 0.00 | 0.00 | 0.00 | 87 | 1021.5 |
| 20260502063411 | 28 | 287 | 0.0 | 0.0 | 0.00 | 0.00 | 0.00 | 88 | 1021.7 |
| 20260502062909 | 28 | 287 | 0.0 | 0.0 | 0.00 | 0.00 | 0.00 | 88 | 1021.6 |
| 20260502062406 | 28 | 287 | 0.0 | 0.0 | 0.00 | 0.00 | 0.00 | 87 | 1021.6 |
| 20260502061905 | 28 | 287 | 0.0 | 0.0 | 0.00 | 0.00 | 0.00 | 87 | 1021.7 |
| 20260502061402 | 28 | 287 | 0.0 | 0.0 | 0.00 | 0.00 | 0.00 | 87 | 1021.7 |
| 20260502060858 | 29 | 287 | 0.0 | 0.0 | 0.00 | 0.00 | 0.00 | 87 | 1021.6 |
| 20260502060353 | 29 | 287 | 0.0 | 0.0 | 0.00 | 0.00 | 0.00 | 87 | 1021.6 |
| 20260502055851 | 29 | 287 | 0.0 | 0.0 | 0.00 | 0.00 | 0.00 | 87 | 1021.5 |
| 20260502055348 | 29 | 287 | 0.0 | 0.0 | 0.00 | 0.00 | 0.00 | 87 | 1021.6 |
| 20260502054848 | 29 | 286 | 0.0 | 0.0 | 0.00 | 0.00 | 0.00 | 86 | 1021.6 |
| 20260502054345 | 29 | 286 | 0.0 | 0.0 | 0.00 | 0.00 | 0.00 | 86 | 1021.6 |
| 20260502053842 | 29 | 287 | 0.0 | 0.0 | 0.00 | 0.00 | 0.00 | 86 | 1021.5 |
| 20260502053339 | 29 | 287 | 0.0 | 0.0 | 0.00 | 0.00 | 0.00 | 86 | 1021.7 |
| 20260502052837 | 29 | 287 | 0.0 | 0.0 | 0.00 | 0.00 | 0.00 | 85 | 1021.6 |
| 20260502052335 | 29 | 287 | 0.0 | 0.0 | 0.00 | 0.00 | 0.00 | 85 | 1021.6 |
| 20260502051832 | 29 | 287 | 0.0 | 0.0 | 0.00 | 0.00 | 0.00 | 85 | 1021.5 |
| 20260502051331 | 29 | 286 | 0.0 | 0.0 | 0.00 | 0.00 | 0.00 | 84 | 1021.6 |
| 20260502050827 | 29 | 286 | 0.0 | 0.0 | 0.00 | 0.00 | 0.00 | 83 | 1021.5 |
| 20260502050323 | 29 | 286 | 0.0 | 0.0 | 0.00 | 0.00 | 0.00 | 83 | 1021.6 |
| 20260502045821 | 29 | 286 | 0.0 | 0.0 | 0.00 | 0.00 | 0.00 | 82 | 1021.6 |
| 20260502045317 | 29 | 286 | 0.0 | 0.0 | 0.00 | 0.00 | 0.00 | 82 | 1021.6 |
| 20260502044814 | 30 | 286 | 0.0 | 0.0 | 0.00 | 0.00 | 0.00 | 81 | 1021.3 |
| 20260502044310 | 30 | 286 | 0.0 | 0.0 | 0.00 | 0.00 | 0.00 | 80 | 1021.6 |
| 20260502043808 | 30 | 287 | 0.0 | 0.0 | 0.00 | 0.00 | 0.00 | 83 | 1021.6 |
| 20260502043305 | 30 | 287 | 0.0 | 0.0 | 0.00 | 0.00 | 0.00 | 80 | 1021.5 |
| 20260502042804 | 30 | 287 | 0.0 | 0.0 | 0.00 | 0.00 | 0.00 | 81 | 1021.6 |
| 20260502042305 | 31 | 287 | 0.0 | 0.0 | 0.00 | 0.00 | 0.00 | 79 | 1021.5 |
| 20260502041800 | 31 | 287 | 0.0 | 0.0 | 0.00 | 0.00 | 0.00 | 79 | 1021.7 |
| 20260502041257 | 31 | 287 | 0.0 | 0.0 | 0.00 | 0.00 | 0.00 | 78 | 1021.5 |
| 20260502040754 | 31 | 286 | 0.0 | 0.0 | 0.00 | 0.00 | 0.00 | 77 | 1021.6 |
| 20260502040251 | 32 | 286 | 0.0 | 0.0 | 0.00 | 0.00 | 0.00 | 78 | 1021.6 |
| 20260502035746 | 32 | 286 | 0.0 | 0.0 | 0.00 | 0.00 | 0.00 | 77 | 1021.7 |
| 20260502035244 | 32 | 286 | 0.0 | 0.0 | 0.00 | 0.00 | 0.00 | 75 | 1021.8 |
| 20260502034741 | 32 | 286 | 0.0 | 0.0 | 0.00 | 0.00 | 0.00 | 75 | 1021.7 |
| 20260502034239 | 33 | 286 | 0.0 | 0.0 | 0.00 | 0.00 | 0.00 | 75 | 1021.8 |
| 20260502033737 | 33 | 286 | 0.0 | 0.0 | 0.00 | 0.00 | 0.00 | 72 | 1021.5 |
| 20260502033234 | 33 | 286 | 0.0 | 0.0 | 0.00 | 0.00 | 0.00 | 70 | 1021.8 |
| 20260502032731 | 33 | 286 | 0.0 | 0.0 | 0.00 | 0.00 | 0.00 | 72 | 1021.6 |
| 20260502032227 | 34 | 286 | 0.0 | 0.0 | 0.00 | 0.00 | 0.00 | 69 | 1021.7 |
| 20260502031725 | 34 | 286 | 0.0 | 0.0 | 0.00 | 0.00 | 0.00 | 68 | 1021.6 |
| 20260502031223 | 34 | 286 | 0.0 | 0.0 | 0.00 | 0.00 | 0.00 | 66 | 1021.6 |
| 20260502030721 | 35 | 286 | 0.0 | 0.0 | 0.00 | 0.00 | 0.00 | 65 | 1021.6 |
| 20260502030219 | 36 | 287 | 0.0 | 0.0 | 0.00 | 0.00 | 0.00 | 65 | 1021.6 |
| 20260502025715 | 37 | 288 | 0.0 | 0.0 | 0.00 | 0.00 | 0.00 | 64 | 1021.5 |
| 20260502025214 | 37 | 288 | 0.0 | 0.0 | 0.00 | 0.00 | 0.00 | 67 | 1021.3 |
| 20260502024711 | 37 | 288 | 0.0 | 0.0 | 0.00 | 0.00 | 0.00 | 66 | 1021.5 |
| 20260502024209 | 38 | 288 | 0.0 | 0.0 | 0.00 | 0.00 | 0.00 | 64 | 1021.5 |
| 20260502023707 | 38 | 288 | 0.0 | 0.0 | 0.00 | 0.00 | 0.00 | 62 | 1021.5 |
| 20260502023204 | 38 | 288 | 0.0 | 0.0 | 0.00 | 0.00 | 0.00 | 62 | 1021.6 |
| 20260502022701 | 38 | 288 | 0.0 | 0.0 | 0.00 | 0.00 | 0.00 | 62 | 1021.5 |
| 20260502022157 | 38 | 289 | 0.0 | 0.0 | 0.00 | 0.00 | 0.00 | 62 | 1021.5 |